Home > Weather > Ryazan > Past weeks

Flag for Russia Weather for the Past 2 Weeks in Ryazan, Russia

Now
45 °F

Clear.


Feels Like: 41 °F
Forecast: 43 / 56 °F
Wind: 6 mph from East

Location: Moscow / Domodedovo

Current Time: Apr 29, 2016 at 5:20:25 AM

Latest Report: Apr 29, 2016 at 4:30 AM


Visibility: 10 mi

Pressure: 30.15 "Hg

Humidity: 57%

Dew Point: 30 °F

Location of RyazanLocation

Historic Weather in Ryazan — Graph

°F

Ryazan Temperature Yesterday

Maximum temperature yesterday: 63 °F (at 4:00 PM)
Minimum temperature yesterday: 52 °F (at 12:30 AM)
Average temperature yesterday: 57 °F

High & Low Weather Summary for the Past Weeks

 TemperatureHumidityPressure
High66 °F (Apr 14, 4:00 PM)100% (Apr 14, 8:30 PM)30.18 "Hg (Apr 14, 8:30 PM)
Low30 °F (Apr 21, 2:00 AM)33% (Apr 17, 1:00 PM)29.47 "Hg (Apr 14, 3:00 PM)
Average48 °F72%29.78 "Hg
* Reported Apr 14 4:00 AM — Apr 29 4:00 AM, Ryazan, Weather by CustomWeather, © 2016

Note: Actual official high and low records may vary slightly from our data, if they occured in-between our weather recording intervals... More about our weather records

Advertising

Ryazan Weather History for the Previous 24 Hours

Scroll right to see more
 ConditionsComfort  
Time TempWeatherWind HumidityBarometerVisibility
4:00 AM
Fri, Apr 29
45 °FClear.6 mph57%30.18 "Hg10 mi
3:30 AM46 °FClear.8 mph50%30.18 "Hg10 mi
3:00 AM46 °FPassing clouds.6 mph53%30.15 "HgN/A
2:00 AM48 °FPassing clouds.6 mph50%30.15 "HgN/A
1:30 AM48 °FClear.6 mph50%30.15 "Hg10 mi
1:00 AM50 °FClear.6 mph47%30.15 "Hg10 mi
12:30 AM48 °FPassing clouds.8 mph50%30.15 "HgN/A
12:00 AM52 °FPassing clouds.8 mph41%30.15 "HgN/A
11:30 PM
Thu, Apr 28
54 °FClear.8 mph44%30.12 "Hg10 mi
11:00 PM54 °FClear.6 mph44%30.12 "Hg10 mi
10:30 PM55 °FClear.8 mph44%30.12 "Hg10 mi
10:00 PM55 °FPassing clouds.10 mph44%30.12 "HgN/A
9:30 PM57 °FClear.10 mph39%30.12 "Hg10 mi
9:00 PM57 °FClear.10 mph41%30.09 "Hg10 mi
8:30 PM59 °FClear.10 mph39%30.09 "Hg10 mi
8:00 PM59 °FPassing clouds.10 mph39%30.09 "HgN/A
7:30 PM59 °FSunny.8 mph42%30.09 "Hg10 mi
7:00 PM61 °FSunny.8 mph39%30.09 "Hg10 mi
6:30 PM61 °FSunny.13 mph39%30.07 "Hg10 mi
6:00 PM63 °FSunny.10 mph37%30.07 "Hg10 mi
5:30 PM63 °FSunny.17 mph37%30.07 "Hg10 mi
5:00 PM63 °FSunny.17 mph42%30.07 "Hg10 mi
4:30 PM63 °FSunny.15 mph42%30.04 "Hg10 mi
4:00 PM63 °FPassing clouds.17 mph42%30.04 "HgN/A
3:30 PM61 °FPassing clouds.13 mph45%30.07 "HgN/A
3:00 PM61 °FPassing clouds.15 mph48%30.07 "HgN/A
2:30 PM59 °FPassing clouds.13 mph51%30.07 "HgN/A
2:00 PM59 °FPassing clouds.13 mph51%30.07 "HgN/A
1:30 PM59 °FScattered clouds.15 mph48%30.07 "HgN/A
1:00 PM59 °FSunny.17 mph48%30.04 "Hg10 mi
12:30 PM59 °FPassing clouds.15 mph51%30.04 "HgN/A
12:00 PM59 °FPassing clouds.13 mph48%30.04 "HgN/A
11:00 AM57 °FSunny.15 mph51%30.04 "Hg10 mi
10:30 AM57 °FPassing clouds.15 mph55%30.04 "HgN/A
9:00 AM55 °FSunny.13 mph63%30.04 "Hg10 mi
8:30 AM55 °FSunny.13 mph67%30.01 "Hg10 mi
8:00 AM55 °FSunny.10 mph67%30.01 "Hg10 mi
7:00 AM54 °FSunny.10 mph77%30.01 "Hg10 mi
6:30 AM54 °FSunny.10 mph77%30.01 "Hg10 mi
6:00 AM52 °FPassing clouds.10 mph88%30.01 "HgN/A
5:30 AM52 °FSunny.8 mph88%30.01 "Hg10 mi
5:00 AM52 °FSunny.8 mph88%30.01 "Hg10 mi
Weather by CustomWeather, © 2016

See weather overviewHow to use our weather pages